User: anonymous   Login
Location: Unspecified
(0.0000°N, 0.0000°E)
Time: 04:54:29
(UTC+00:00)
Language:

INTELSAT 36 - Orbit

View from above orbital plane
View from above orbital plane
View from above satellite
View from above satellite

Ground track
Ground track

The orbit data is extracted from the following two-line orbital elements,

1 41747U 16053A   25341.08586225 -.00000019  00000-0  00000-0 0  9990
2 41747   0.0116 351.1153 0001532 320.4670 223.9453  1.00271325 34023
Epoch (UTC): 07 December 2025 02:03:38
Eccentricity: 0.0001532
inclination: 0.0116°
perigee height: 35780 km
apogee height: 35793 km
right ascension of ascending node: 351.1153°
argument of perigee: 320.4670°
revolutions per day: 1.00271325
mean anomaly at epoch: 223.9453°
orbit number at epoch: 3402

The dashed part of the orbit path shows where the satellite is in the earth's shadow,  

DLR